Other Public Products
Issued by NWS Grand Forks, ND

Home | Current Version | Previous Version | Text Only | Print | Product List | Glossary On
Versions: 1 2 3 4 5 6 7 8 9 10 11 12 13 14 15 16 17 18 19 20 21 22 23 24 25 26 27 28 29 30 31 32 33 34 35 36 37 38 39 40 41 42 43 44 45 46 47 48 49 50
000
FPUS83 KFGF 051231
OPUFGF
PRAIRIE TO PINES WEATHER ROUNDUP
NATIONAL WEATHER SERVICE EASTERN NORTH DAKOTA/GRAND FORKS ND
700 AM CDT SUN JUL 05 2015

 **SATELLITE DATA USED TO AUGMENT SKY COVER AT AUTOMATED STATIONS**
 *****  WEATHER ACROSS EASTERN NORTH DAKOTA  *****

CITY           SKY/WX    TMP DP  RH WIND       PRES   REMARKS
GRAND FORKS    PTSUNNY   70  67  90 SE15      29.75S
6HR MIN TEMP:  66; 6HR MAX TEMP:  75; 6HR PCP:  0.35;

GRAND FORKS AF MOSUNNY   68  66  94 S14G24    29.75S
GRAND CITY NWS   N/A     68 N/A N/A SE13        N/A
BUXTON         NOT AVBL
DEVILS LAKE    PTSUNNY   66  63  88 E6        29.73S
6HR MIN TEMP:  64; 6HR MAX TEMP:  70;

FARGO          MOSUNNY   70  65  84 E8        29.78R HAZE
6HR MIN TEMP:  70; 6HR MAX TEMP:  74;

WAHPETON ARPT  MOSUNNY   68  61  77 SE14G23   29.78R
$$

 *****  WEATHER ACROSS CENTRAL AND WESTERN NORTH DAKOTA  *****

CITY           SKY/WX    TMP DP  RH WIND       PRES   REMARKS
JAMESTOWN      MOSUNNY   70  66  87 S10       29.72F
6HR MIN TEMP:  68; 6HR MAX TEMP:  73;

BISMARCK       CLOUDY    68  67  96 E6        29.71R FOG
6HR MIN TEMP:  67; 6HR MAX TEMP:  74;

MINOT          CLOUDY    64  61  90 NW13      29.83R
6HR MIN TEMP:  61; 6HR MAX TEMP:  64;

MINOT AFB      TSTM      66  66 100 NW17      29.84R
6HR MIN TEMP:  59; 6HR MAX TEMP:  65;

GARRISON         N/A     65  62  90 N9        29.78R
6HR MIN TEMP:  65; 6HR MAX TEMP:  67;

WILLISTON      CLOUDY    64  62  93 NE3       29.88F FOG
6HR MIN TEMP:  64; 6HR MAX TEMP:  68; 6HR PCP:  0.31;

DICKINSON      CLOUDY    64  60  87 NE10      29.80R
6HR MIN TEMP:  61; 6HR MAX TEMP:  68; 6HR PCP:  0.02;

HETTINGER      LGT RAIN  65  61  87 NW18      29.82R
6HR MIN TEMP:  57; 6HR MAX TEMP:  75; 6HR PCP: TRACE;

$$

 *****  OTHER OBSERVATIONS NORTHEAST NORTH DAKOTA  *****

CITY           SKY/WX    TMP DP  RH WIND       PRES   REMARKS
WALHALLA       FAIR      64  64 100 MISG      29.78S FOG
LANGDON        CLOUDY    64  64 100 N8        29.78S FOG
CAVALIER       PTSUNNY   64  64 100 NE5       29.77R
GRAFTON        CLOUDY    68  68 100 VRB6G21   29.76S FOG
CANDO          CLOUDY    64  63  94 N16G22    29.79R FOG
FORT TOTTEN    NOT AVBL
ROLLA          FOG       63  63 100 N16       29.83R VSB<1/4
RUGBY          NOT AVBL
 ***** THE ABOVE OBSERVATIONS ARE NON NWS ARE NOT QUALITY
        CONTROLLED AND MAY MIS-REPORT RAIN FOR SNOW...
$$

 *****  OTHER OBSERVATIONS SOUTHEAST NORTH DAKOTA *****

CITY           SKY/WX    TMP DP  RH WIND       PRES   REMARKS
COOPERSTOWN    NOT AVBL
VALLEY CITY    FAIR      68  68 100 E8        29.76S
OAKES            N/A     68  68 100 SE7       29.74S
GWINNER          N/A     72  70  94 E6        29.76S
BUFFALO        NOT AVBL
WYNDMERE       NOT AVBL
 ***** THE ABOVE OBSERVATIONS ARE NON NWS ARE NOT QUALITY
       CONTROLLED AND MAY MIS-REPORT RAIN FOR SNOW...
$$

  *****  WEATHER ACROSS NORTHERN MINNESOTA  *****

CITY           SKY/WX    TMP DP  RH WIND       PRES   REMARKS
FLAG ISLAND    NOT AVBL
WARROAD        PTSUNNY   64  61  88 S3        29.79R
ROSEAU         MOSUNNY   64  59  82 CALM      29.78S
HALLOCK        CLOUDY    64  64 100 N9        29.78R THUNDER
THF RVR FALLS  PTSUNNY   70  64  83 S13       29.77F
6HR MIN TEMP:  64; 6HR MAX TEMP:  72; 6HR PCP:  0.55;

HALSTAD        NOT AVBL
FOSSTON        RAIN      63  61  94 S6        29.86S
BAUDETTE       CLOUDY    65  63  93 S5        29.77S
6HR MIN TEMP:  62; 6HR MAX TEMP:  68; 6HR PCP:  0.75;

WASKISH        CLOUDY    64  63  94 SW5       29.80S
CROOKSTON      PTSUNNY   68  66  94 S16       29.77F
$$
  *****  WEATHER ACROSS CENTRAL AND WEST MINNESOTA  *****

CITY           SKY/WX    TMP DP  RH WIND       PRES   REMARKS
BEMIDJI        CLOUDY    65  62  91 S8        29.85S
PARK RAPIDS    MOSUNNY   68  63  84 SE9       29.87S HAZE
6HR MIN TEMP:  67; 6HR MAX TEMP:  71;

WADENA         MOSUNNY   66  63  88 NE5       29.87S
DETROIT LAKES  MOSUNNY   68  63  83 SE9       29.86S
MOORHEAD       MOSUNNY   70  64  83 SE9       29.79F
FERGUS FALLS   MOSUNNY   70  63  78 S12       29.81S THUNDER
ELBOW LAKE     FAIR      68  63  84 SE13      29.83S
6HR MIN TEMP:  66; 6HR MAX TEMP:  70;

MORRIS MN      CLOUDY    66  63  88 SE10      29.82R
STAPLES        PTSUNNY   64  61  88 CALM      29.88S
WHEATON        PTSUNNY   64  63  94 E9        29.81R FOG
$$
  *****  WEATHER ELSEWHERE ACROSS MINNESOTA  *****

CITY           SKY/WX    TMP DP  RH WIND       PRES   REMARKS
DULUTH         PTSUNNY   58  54  86 S3        29.92F FOG
6HR MIN TEMP:  56; 6HR MAX TEMP:  59;

INTRNTL FALLS  CLOUDY    64  62  93 CALM      29.79S FOG
6HR MIN TEMP:  64; 6HR MAX TEMP:  66; 6HR PCP:  0.05;

ELY            CLOUDY    66  61  82 S8        29.87F
CLOQUET        PTSUNNY   57  55  94 CALM      29.93S FOG
BRAINERD       CLOUDY    66  61  84 S7        29.91R HAZE
6HR MIN TEMP:  62; 6HR MAX TEMP:  70;

HIBBING        CLOUDY    58  56  93 SE3       29.89F FOG
6HR MIN TEMP:  54; 6HR MAX TEMP:  61;

ALEXANDRIA     PTSUNNY   66  62  87 SE10      29.87F
6HR MIN TEMP:  65; 6HR MAX TEMP:  70;

SAINT CLOUD    PTSUNNY   63  61  93 S6        29.91S
6HR MIN TEMP:  61; 6HR MAX TEMP:  68;

MINNEAPOLIS    CLOUDY    68  59  73 S7        29.95S
6HR MIN TEMP:  66; 6HR MAX TEMP:  73;

$$

  *****  WEATHER ACROSS SOUTH DAKOTA  *****

CITY           SKY/WX    TMP DP  RH WIND       PRES   REMARKS
SIOUX FALLS    LGT RAIN  68  65  90 E10       29.91R FOG
6HR MIN TEMP:  68; 6HR MAX TEMP:  71; 6HR PCP:  0.07;

BROOKINGS      CLOUDY    68  63  83 SE16      29.89F
WATERTOWN      CLOUDY    68  64  87 S14G29    29.79R
6HR MIN TEMP:  68; 6HR MAX TEMP:  71; 6HR PCP:  0.06;

HURON          CLEAR     68  65  90 SE15      29.79R
6HR MIN TEMP:  68; 6HR MAX TEMP:  73; 6HR PCP:  0.09;

SISSETON         N/A     69  64  84 SE8       29.77R
ABERDEEN       CLEAR     68  62  81 MISG      29.74R
6HR MIN TEMP:  64; 6HR MAX TEMP:  74; 6HR PCP:  1.59;

MITCHELL       PTCLDY    71  66  84 SE12      29.83R
PIERRE         CLEAR     67  65  93 E6        29.72S
6HR MIN TEMP:  64; 6HR MAX TEMP:  79; 6HR PCP: TRACE;

MOBRIDGE       PTCLDY    70  69  97 SE15      29.70F
RAPID CITY     PTCLDY    65  61  87 E3        29.77F
6HR MIN TEMP:  63; 6HR MAX TEMP:  70;

$$

  *****  SOME WEATHER IN NEARBY STATES *****

CITY           SKY/WX    TMP DP  RH WIND       PRES   REMARKS
GLASGOW MT     MOCLDY    58  52  80 NW9       29.95R HAZE
6HR MIN TEMP:  58; 6HR MAX TEMP:  69; 6HR PCP:  0.15;

GREAT FALLS MT LGT RAIN  53  52  96 N13       30.11R FOG
6HR MIN TEMP:  53; 6HR MAX TEMP:  62; 6HR PCP:  0.02;

CHEYENNE WY    PTCLDY    64  50  60 NW6       30.02R
6HR MIN TEMP:  63; 6HR MAX TEMP:  69;

SCOTTSBLUFF NE MOCLDY    63  61  93 S3        29.87S
6HR MIN TEMP:  63; 6HR MAX TEMP:  71;

OMAHA NE       CLOUDY    70  64  81 S12       29.93R
6HR MIN TEMP:  69; 6HR MAX TEMP:  71;

DES MOINES IA  CLOUDY    66  61  84 S8        29.98S
6HR MIN TEMP:  65; 6HR MAX TEMP:  68;

DAVENPORT IA   SUNNY     64  61  90 SE3       30.06R FOG
6HR MIN TEMP:  59; 6HR MAX TEMP:  64;

CHICAGO IL     SUNNY     64  60  87 CALM      30.08R FOG
6HR MIN TEMP:  60; 6HR MAX TEMP:  67;

EAU CLAIRE WI  SUNNY     65  60  84 S5        29.99R
6HR MIN TEMP:  61; 6HR MAX TEMP:  68;

LA CROSSE WI   SUNNY     66  62  87 SE5       30.00F
6HR MIN TEMP:  64; 6HR MAX TEMP:  69;

$$

  *****  SOME NATIONAL WEATHER *****

CITY           SKY/WX    TMP DP  RH WIND       PRES   REMARKS
LA GUARDIA NY  PTSUNNY   72  60  66 NW5       30.09R



USA.gov is the U.S. government's official web portal to all federal, state and local government web resources and services.